Location: El Jard�n
(21.3667°N, 77.9333°W)
Time: 20:51:56
(UTC+00:00)

Daily predictions for brighter satellites

Satellite Brightness Start Highest point End
(mag) Time Altitude Azimuth Time Altitude Azimuth Time Altitude Azimuth
NOSS 3-4 (A) 3.5 23:21:07 10° S 23:26:48 53° ESE 23:32:32 10° NE
NOSS 3-4 (C) 3.5 23:21:14 10° S 23:26:54 52° ESE 23:32:37 10° NE
Feng Yun 1-1 Rocket 4.2 23:22:00 10° SSE 23:27:25 77° ENE 23:32:58 10° N
DELTA 2 R/B (1) 4.2 23:22:19 10° NW 23:27:30 39° NNE 23:32:40 10° E
CZ-2D R/B 3.8 23:28:33 10° SE 23:32:09 37° ENE 23:35:45 10° N
CZ-4 R/B 2.2 23:30:34 10° SE 23:34:21 33° ENE 23:38:07 10° NNE
IRS-1C Rocket 4.1 23:30:01 10° SSE 23:35:15 76° ENE 23:40:29 10° N
Cosmos 1943 3.2 23:29:39 10° NNW 23:35:18 71° ENE 23:40:57 10° SSE
Okean 2 3.6 23:33:49 10° N 23:37:57 78° W 23:42:03 10° S
Cosmos 1125 Rocket 3.5 23:34:40 10° S 23:39:56 72° ESE 23:45:13 10° NNE
Okean-O 2.8 23:38:27 10° SSE 23:42:44 51° ENE 23:47:01 10° N
Cosmos 1513 Rocket 4.5 23:41:36 10° S 23:47:54 83° E 23:54:07 10° N
Exosat Rocket 3.8 23:41:38 10° S 23:48:22 73° ESE 23:53:35 10° NNE
ATLAS 2AS CENTAUR R/B 3.0 23:40:51 10° SSW 23:48:31 74° ESE 23:56:28 10° NNE
CZ-2C R/B 3.7 23:46:30 10° SE 23:51:10 36° ENE 23:56:06 10° N
Gbstr 26 Del rocket 4.3 23:47:24 10° SSW 23:52:57 43° ESE 23:59:37 10° NE
